Total_Precipitation_Accumulation
2.76 2.65 3.97 4.19 3.60 2.83 2.62 2.52 2.31 2.17 2.22 2.25 2.06 1.98 1.92 1.89 1.70 1.60 1.45 1.35 1.32 1.31 1.37 1.40 1.47 1.55 1.52 1.39 1.28 1.54 1.62 1.59 1.58 1.54 1.68 1.87 2.07 2.27 2.47 2.68 2.91 3.13 2.90
2.25 2.25 3.65 3.94 3.39 2.77 2.41 2.31 2.25 2.14 2.25 2.22 2.17 2.04 1.99 1.83 1.69 1.64 1.42 1.36 1.37 1.36 1.30 1.38 1.48 1.43 1.40 1.42 1.40 1.57 1.59 1.44 1.38 1.53 1.86 2.14 2.21 2.31 2.42 2.46 2.81 3.03 2.80
1.76 1.87 2.77 3.55 3.24 2.76 2.36 2.16 2.19 2.19 2.33 2.32 2.31 2.14 1.98 1.84 1.76 1.61 1.50 1.58 1.54 1.41 1.29 1.25 1.41 1.48 1.44 1.57 1.55 1.57 1.50 1.43 1.42 1.69 2.32 3.06 2.71 2.43 2.42 2.41 2.61 2.54 2.54
1.61 1.70 2.10 2.93 2.82 2.42 2.18 2.12 2.26 2.31 2.44 2.41 2.27 2.05 1.90 1.88 1.81 1.65 1.63 1.78 1.62 1.50 1.36 1.30 1.45 1.59 1.51 1.57 1.55 1.49 1.41 1.46 1.65 1.79 2.28 2.93 3.08 2.63 2.54 2.61 2.55 2.48 2.60
1.55 1.68 2.29 2.90 2.64 2.34 2.14 2.30 2.53 2.55 2.52 2.34 2.10 1.91 1.87 1.90 1.84 1.80 1.86 1.95 1.72 1.60 1.43 1.35 1.44 1.49 1.45 1.45 1.41 1.42 1.42 1.62 1.90 1.80 2.14 2.68 3.27 3.10 2.57 2.54 2.55 2.57 2.76
1.56 1.68 2.17 2.79 2.60 2.38 2.19 2.42 2.58 2.63 2.66 2.53 2.23 1.99 1.91 1.88 1.84 1.80 1.88 1.82 1.76 1.70 1.48 1.38 1.42 1.46 1.46 1.43 1.43 1.44 1.53 1.72 1.75 1.85 2.19 2.64 3.10 3.10 2.63 2.48 2.57 2.81 2.83
1.42 1.46 1.74 2.46 2.56 2.40 2.30 2.53 2.62 2.70 2.86 2.77 2.48 2.30 2.07 1.91 1.87 1.86 1.91 1.78 1.72 1.74 1.71 1.60 1.54 1.52 1.50 1.51 1.44 1.34 1.32 1.33 1.32 1.60 1.89 2.59 2.92 2.89 2.74 2.58 2.54 2.64 2.78
1.50 1.41 1.43 2.12 2.40 2.39 2.44 2.50 2.49 2.52 2.61 2.65 2.45 2.26 2.03 1.88 1.87 2.01 2.08 1.91 1.83 1.68 1.61 1.65 1.66 1.68 1.70 1.68 1.57 1.44 1.31 1.05 0.97 1.24 1.69 2.41 2.91 2.88 2.71 2.73 2.77 2.73 2.95
1.63 1.56 1.47 1.62 1.97 2.33 2.40 2.28 2.27 2.26 2.29 2.42 2.28 2.17 1.99 1.92 1.89 2.00 2.05 1.96 1.95 1.90 1.86 1.89 2.01 1.97 1.90 1.94 1.74 1.58 1.39 1.05 1.03 1.25 1.39 2.26 2.91 2.91 2.68 2.64 2.82 3.00 3.05
1.82 1.68 1.51 1.46 1.55 1.64 1.86 2.04 2.22 2.26 2.24 2.32 2.15 1.97 1.84 1.82 1.85 1.97 1.97 1.95 2.08 2.14 2.16 2.22 2.30 2.27 2.32 2.18 1.77 1.49 1.28 1.02 1.10 1.18 1.52 2.15 2.91 3.05 2.86 2.60 2.52 2.56 2.64
1.62 1.51 1.55 1.54 1.56 1.61 1.58 1.64 1.97 2.11 2.15 2.03 1.95 1.83 1.68 1.43 1.38 1.57 1.71 2.12 2.43 2.63 2.55 2.50 2.33 2.19 2.06 1.86 1.55 1.26 1.03 0.97 1.10 1.24 1.70 2.34 3.03 3.26 2.95 2.55 2.37 2.27 2.31
1.36 1.30 1.35 1.37 1.49 1.54 1.40 1.62 1.92 1.76 1.67 1.45 1.46 1.34 1.39 1.34 1.30 1.13 1.36 1.90 2.19 2.31 2.31 2.30 2.22 1.90 1.54 1.20 1.13 1.01 0.87 0.83 0.88 1.07 1.70 2.47 2.88 3.16 2.94 2.63 2.51 2.39 2.35
1.15 1.10 1.04 1.10 1.15 1.28 1.45 1.70 1.99 2.04 1.86 1.64 1.39 1.31 1.36 1.28 1.20 1.09 1.10 1.28 1.45 1.52 1.39 1.40 1.40 1.27 1.14 1.04 1.01 0.87 0.82 0.78 0.86 1.05 1.79 2.46 2.77 2.95 2.93 2.81 2.77 2.73 2.62
0.98 1.04 0.86 0.77 0.90 1.07 1.19 1.32 1.60 1.67 1.59 1.48 1.29 1.19 1.29 1.33 1.22 1.17 1.17 1.21 1.22 1.21 1.24 1.20 1.26 1.23 1.04 0.95 0.95 0.98 0.93 0.88 0.96 1.20 1.79 2.32 2.72 3.01 2.99 2.96 2.97 2.92 2.98
1.03 1.02 0.90 0.78 0.75 0.83 0.89 1.00 1.15 1.30 1.37 1.39 1.36 1.18 1.19 1.32 1.29 1.26 1.20 1.25 1.14 1.04 1.11 1.19 1.22 1.25 1.15 1.01 0.95 0.96 1.04 0.97 0.98 1.13 1.49 2.01 2.55 3.04 3.27 3.21 3.01 2.85 2.87
1.05 1.07 0.98 0.85 0.81 0.84 0.81 0.82 0.82 0.96 1.11 1.23 1.27 1.18 1.20 1.30 1.31 1.37 1.31 1.25 1.18 1.09 1.11 1.29 1.27 1.29 1.27 1.20 1.03 1.03 1.05 0.99 0.99 1.04 1.20 1.61 2.02 2.51 3.08 3.46 3.26 2.94 2.70
1.08 1.11 1.08 0.99 0.98 0.97 0.92 0.89 0.75 0.78 0.88 1.03 1.19 1.19 1.25 1.22 1.16 1.23 1.26 1.20 1.18 1.19 1.20 1.26 1.31 1.38 1.30 1.20 1.15 1.11 1.09 1.04 0.98 1.04 1.00 1.16 1.33 1.79 2.38 2.89 3.18 3.14 2.98
0.98 1.13 1.20 1.11 1.11 1.11 1.10 1.06 0.98 1.00 1.08 1.15 1.31 1.28 1.23 1.26 1.23 1.22 1.26 1.24 1.27 1.31 1.30 1.34 1.41 1.41 1.37 1.36 1.30 1.26 1.12 1.09 1.04 1.05 0.99 0.99 1.08 1.15 1.50 1.94 2.41 2.78 2.99
0.88 0.97 1.09 1.19 1.21 1.18 1.19 1.27 1.36 1.38 1.37 1.38 1.46 1.37 1.25 1.26 1.32 1.43 1.47 1.47 1.42 1.45 1.45 1.40 1.43 1.35 1.35 1.36 1.28 1.30 1.25 1.20 1.14 1.01 1.04 1.01 1.03 1.00 1.11 1.25 1.52 1.83 2.20
0.82 0.87 0.99 1.10 1.31 1.39 1.40 1.38 1.52 1.56 1.59 1.66 1.71 1.54 1.41 1.45 1.57 1.76 1.83 1.73 1.69 1.68 1.67 1.61 1.65 1.54 1.43 1.46 1.34 1.33 1.29 1.20 1.23 1.19 1.18 1.11 1.15 1.10 1.05 1.01 1.08 1.10 1.35
0.70 0.76 0.86 0.97 1.15 1.26 1.31 1.41 1.61 1.78 1.92 2.00 2.05 1.90 1.76 1.74 1.89 2.04 1.95 2.03 2.04 1.91 1.90 1.96 2.01 1.96 1.77 1.63 1.68 1.57 1.32 1.14 1.21 1.18 1.18 1.23 1.24 1.32 1.32 1.17 1.06 1.04 1.03
0.46 0.52 0.63 0.77 0.86 1.02 1.21 1.46 1.66 1.94 2.00 2.06 2.11 2.11 2.01 1.95 2.10 2.14 2.22 2.31 2.33 2.34 2.28 2.17 2.28 2.43 2.16 1.92 2.02 2.30 1.92 1.58 1.23 1.01 1.12 1.21 1.25 1.49 1.52 1.31 1.10 1.05 1.05
0.38 0.41 0.51 0.64 0.79 1.04 1.30 1.65 1.93 2.19 2.28 2.34 2.29 2.29 2.27 2.27 2.32 2.35 2.41 2.47 2.48 2.34 2.34 2.45 2.58 2.92 2.72 2.35 2.14 2.41 2.26 1.95 1.66 1.22 1.10 1.19 1.27 1.42 1.52 1.56 1.45 1.34 1.24
0.35 0.42 0.55 0.75 0.97 1.26 1.60 1.96 2.23 2.49 2.64 2.48 2.45 2.45 2.41 2.31 2.30 2.40 2.40 2.38 2.35 2.29 2.36 2.44 2.50 2.93 3.14 2.84 2.48 2.06 1.84 1.81 1.93 1.67 1.25 1.18 1.28 1.29 1.39 1.48 1.45 1.54 1.48
0.48 0.57 0.76 1.03 1.34 1.64 1.89 2.07 2.31 2.44 2.46 2.41 2.38 2.38 2.28 2.24 2.20 2.21 2.19 2.28 2.29 2.32 2.38 2.55 2.69 2.97 3.01 3.01 2.81 2.57 2.34 2.02 1.69 1.80 1.75 1.46 1.38 1.29 1.37 1.49 1.54 1.66 1.69
0.67 0.84 1.04 1.22 1.52 1.71 1.86 1.98 2.12 2.26 2.31 2.31 2.31 2.34 2.32 2.28 2.17 2.08 2.02 2.09 2.21 2.35 2.39 2.48 2.65 2.92 3.04 3.14 3.05 2.75 2.64 2.48 2.20 2.10 1.87 1.72 1.67 1.44 1.39 1.45 1.49 1.63 1.80